ARIANE 44L DEB, 28573

Orbit data source: Space-Track

ARIANE 44L DEB, 28573 is space debris in HEO originally from a launch on Tue, 15 Jan 1991 UTC launched from the French Guiana (FRGUI). Debris objects in space refer to the collection of defunct objects orbiting the Earth. Examples of debris include non-operational satellites, rocket bodies, and fragments generated from explosions, collisions, or faulty payload assembly.

Loading next visibility...
Identifier
28573, 1991-003N
Orbit
HEO
Country
Flag of FRFR
Related business
Manufacturer
Unknown
Mission
Spacecraft
Bus & Motor
Unknown
Mass
Unknown
Launch date (UTC)
1991-01-15 (35 years ago)
Launch vehicle
Unknown
Launch site
French Guiana (FRGUI)
Object type
Payload
Rocket body
Debris
Shape & HBR
Unknown shape, 0.4 m
Radar Cross Section
Medium (>0.1 m² and <1 m²)

Expand to show TLE details & history
Last TLE update: 2 days ago

TLE from 2 days ago
0 ARIANE 44L DEB
1 28573U 91003N   26171.22606925 -.00000037  00000-0  30875-3 0  9994
2 28573   6.8548 177.4926 6799568 201.3540 293.6311  2.64790680220987
Epoch: 2026-06-20T05:25Z
TLE epoch observation values (Epoch: 2026-06-20T05:25:32.383Z)
Latitude
5.85606°
Longitude
-113.52914°
Altitude
19,360.039 km
Speed
3.593 km/s
True Right ascension
15h 45m 11s
True Declination
5° 50' 47"
Sunlit
Object was in daylight at epoch
Visualization orbit readout
Latitude
Unknown
Longitude
Unknown
Altitude
Unknown
Speed
Unknown
Apparent Right ascension
Unknown
Apparent Declination
Unknown
Sunlit
N/A
Visualization observer readout
Local Sidereal Time
23:07:52
Azimuth
Unknown
Elevation
Unknown
Doppler factor
Unknown
Orbital elements
Apogee altitude
30,706.66 km
Perigee altitude
686.769 km
Semi-major axis
22,074.852 km
Eccentricity
0.67996
Inclination
6.8548°
RAAN
177.4926°
Arg. of periapsis
201.354°
True anomaly
217.56765°
Mean anomaly
293.6311°
Eccentric anomaly
255.85385°
Mean motion
0.66175 °/min
Orbital period
544.01 mins
BSTAR
0.00030875
Loading maneuver chart data...
Computing Atmospheric mass density...
Loading historical data...
Loading historical data...
Loading historical data...
Loading historical data...
Loading historical data...
Loading historical data...
Loading historical data...

Documentation

Showing up to 5 results
|